GW5243 Weather Reports


Display with metric or nautical units.
time (UTC)temp
F
wind
direction
speed
MPH
gust
MPH
rain 1hr
in
rain 24hr
in
rain mn
in
humidity
%
barometer
mb
20260831123020 59 166 1.0 2.0 0.00 0.00 0.00 91 1020.7
20260831121527 57 142 0.0 2.0 0.00 0.00 0.00 97 1020.6
20260831120038 55 54 0.0 0.0 0.00 0.00 0.00 1020.7
20260831114533 53 54 0.0 2.0 0.00 0.00 0.00 97 1020.6
20260831113018 52 48 0.0 2.0 0.00 0.00 0.00 97 1020.5
20260831111526 51 46 0.0 2.0 0.00 0.00 0.00 97 1020.2
20260831110003 51 352 0.0 2.0 0.00 0.00 0.00 96 1020.2
20260831104504 51 352 0.0 0.0 0.00 0.00 0.00 95 1020.3
20260831103007 52 352 0.0 0.0 0.00 0.00 0.00 96 1020.2
20260831101508 52 325 0.0 0.0 0.00 0.00 0.00 97 1020.0
20260831100006 52 325 0.0 0.0 0.00 0.00 0.00 97 1020.2
20260831094507 52 325 0.0 0.0 0.00 0.00 0.00 97 1020.0
20260831093011 51 311 0.0 0.0 0.00 0.00 0.00 96 1019.8
20260831091513 51 9 0.0 0.0 0.00 0.00 0.00 96 1019.7
20260831090005 51 9 0.0 0.0 0.00 0.00 0.00 95 1019.7
20260831084520 51 9 0.0 0.0 0.00 0.00 0.00 95 1019.5
20260831083006 52 9 0.0 0.0 0.00 0.00 0.00 95 1019.5
20260831081507 52 9 0.0 0.0 0.00 0.00 0.00 95 1019.5
20260831080020 53 9 0.0 0.0 0.00 0.00 0.00 95 1019.4
20260831074521 53 9 0.0 0.0 0.00 0.00 0.00 95 1019.4
20260831073012 53 9 0.0 0.0 0.00 0.00 0.00 94 1019.2
20260831071506 54 9 0.0 0.0 0.00 0.00 0.00 95 1018.9
20260831070009 54 9 0.0 0.0 0.00 0.00 0.00 94 1018.9
20260831064509 55 9 0.0 0.0 0.00 0.00 0.00 94 1019.0
20260831063004 55 9 0.0 0.0 0.00 0.00 0.00 94 1018.9
20260831061508 56 9 0.0 0.0 0.00 0.00 0.00 94 1018.9
20260831060009 57 9 0.0 0.0 0.00 0.00 0.00 93 1019.1
20260831054515 57 9 0.0 0.0 0.00 0.00 0.00 93 1019.0
20260831053013 58 9 0.0 0.0 0.00 0.00 0.00 93 1018.9
20260831051519 58 9 0.0 0.0 0.00 0.00 0.00 91 1018.9
20260831050012 60 9 0.0 0.0 0.00 0.00 0.00 91 1018.7
20260831044516 60 9 0.0 0.0 0.00 0.00 0.00 93 1018.5
20260831043012 60 9 0.0 2.0 0.00 0.00 0.00 93 1018.5
20260831041513 60 352 0.0 2.0 0.00 0.00 0.00 92 1018.5
20260831040020 61 345 0.0 2.0 0.00 0.00 0.00 90 1018.0
20260831034515 61 315 1.0 2.0 0.00 0.00 0.00 90 1018.0
20260831033015 62 302 1.0 2.0 0.00 0.00 0.00 89 1018.1
20260831031516 63 319 0.0 2.0 0.00 0.00 0.00 87 1018.1
20260831030014 64 28 1.0 2.0 0.00 0.00 0.00 85 1018.2
20260831024511 65 286 0.0 2.0 0.00 0.00 0.00 83 1018.1
20260831023015 65 292 1.0 2.0 0.00 0.00 0.00 83 1018.0
20260831021519 65 74 0.0 2.0 0.00 0.00 0.00 83 1017.8
20260831020006 65 298 0.0 2.0 0.00 0.00 0.00 84 1017.8
20260831014511 66 232 0.0 3.0 0.00 0.00 0.00 84 1017.7
20260831013017 66 78 1.0 5.0 0.00 0.00 0.00 84 1017.3
20260831011520 65 322 1.0 3.0 0.00 0.00 0.00 86 1017.3
20260831010020 67 52 0.0 2.0 0.00 0.00 0.00 84 1017.4
20260831004511 67 315 1.0 5.0 0.00 0.00 0.00 81 1017.2
20260831003009 68 19 2.0 5.0 0.00 0.00 0.00 79 1017.0
20260831001516 66 97 1.0 3.0 0.00 0.00 0.00 83 1016.7
20260831000020 66 74 0.0 2.0 0.00 0.00 0.00 85 1016.3
20260830234524 67 309 0.0 2.0 0.00 0.00 0.00 83 1016.2
20260830233007 68 352 0.0 2.0 0.00 0.00 0.00 83 1015.9
20260830231518 68 336 0.0 2.0 0.00 0.00 0.00 80 1015.9
20260830230023 68 84 0.0 2.0 0.00 0.00 0.00 81 1015.9
20260830224524 69 192 0.0 3.0 0.00 0.00 0.00 80 1015.9
20260830223031 70 182 1.0 2.0 0.00 0.00 0.00 75 1016.0
20260830221514 70 142 0.0 2.0 0.00 0.00 0.00 81 1015.9
20260830220024 70 327 0.0 2.0 0.00 0.00 0.00 80 1015.8
20260830214529 71 327 0.0 2.0 0.00 0.00 0.00 80 1015.8
20260830213026 72 327 0.0 2.0 0.00 0.00 0.00 76 1015.9
20260830211516 72 324 0.0 2.0 0.00 0.00 0.00 76 1015.8
20260830210016 73 324 0.0 2.0 0.00 0.00 0.00 74 1016.1
20260830204524 72 307 0.0 2.0 0.00 0.00 0.00 74 1016.2
20260830203029 72 307 0.0 2.0 0.00 0.00 0.00 71 1016.4
20260830201536 72 318 0.0 2.0 0.00 0.00 0.00 68 1016.4
20260830200013 73 322 0.0 2.0 0.00 0.00 0.00 69 1016.4
20260830194519 75 252 1.0 4.0 0.00 0.00 0.00 62 1016.6
20260830193027 76 277 1.0 8.0 0.00 0.00 0.00 59 1016.9
20260830191530 76 307 1.0 4.0 0.00 0.00 0.00 59 1017.1
20260830190030 74 215 1.0 5.0 0.00 0.00 0.00 62 1017.3
20260830184519 72 311 1.0 4.0 0.00 0.00 0.00 64 1017.4
20260830183032 72 352 0.0 4.0 0.00 0.00 0.00 67 1017.6
20260830181527 71 242 0.0 3.0 0.00 0.00 0.00 68 1017.9
20260830180035 71 272 0.0 3.0 0.00 0.00 0.00 69 1018.1
20260830174533 71 165 0.0 4.0 0.00 0.00 0.00 67 1018.2
20260830173021 71 319 2.0 5.0 0.00 0.00 0.00 66 1018.2
20260830171529 70 277 1.0 3.0 0.00 0.00 0.00 68 1018.4
20260830170009 70 329 1.0 4.0 0.00 0.00 0.00 69 1018.8
20260830164524 70 213 0.0 4.0 0.00 0.00 0.00 71 1018.9
20260830163033 70 246 1.0 6.0 0.00 0.00 0.00 68 1018.9
20260830161526 70 302 1.0 4.0 0.00 0.00 0.00 69 1019.3
20260830160019 70 140 1.0 4.0 0.00 0.00 0.00 67 1019.4
20260830154522 69 203 0.0 2.0 0.00 0.00 0.00 71 1019.4
20260830153016 69 331 0.0 4.0 0.00 0.00 0.00 73 1018.9
20260830151519 69 273 0.0 5.0 0.00 0.00 0.00 69 1019.6
20260830150027 69 5 1.0 8.0 0.00 0.00 0.00 69 1019.5
20260830144525 70 63 1.0 5.0 0.00 0.00 0.00 69 1019.5
20260830143016 69 273 0.0 2.0 0.00 0.00 0.00 69 1019.6
20260830141522 69 77 0.0 5.0 0.00 0.00 0.00 68 1019.8
20260830140005 69 246 1.0 6.0 0.00 0.00 0.00 68 1019.7
20260830134508 69 41 0.0 3.0 0.00 0.00 0.00 69 1019.5
20260830133011 68 163 0.0 2.0 0.00 0.00 0.00 71 1019.6
20260830131515 67 250 1.0 3.0 0.00 0.00 0.00 75 1019.6
20260830130004 65 107 1.0 2.0 0.00 0.00 0.00 76 1019.6
20260830124510 63 168 0.0 2.0 0.00 0.00 0.00 79 1019.7